Location: Arrodets-la-Barthe
(43.0306°N, 0.2829°E)
Time: 00:15:27
(UTC+00:00)

DUCHIFAT 1 - Pass Details

Date: 05 April 2023
Orbit: 567 x 581 km, 98.1° (Epoch: 29 May)

Event Time Altitude Azimuth Distance (km) Brightness Sun altitude
Rises 03:21:00 0° 12° (NNE) 2,787 ? -23.5°
Reaches altitude 10° 03:23:10 10° 11° (NNE) 1,882 ? -23.2°
Maximum altitude 03:27:14 82° 285° (WNW) 580 ? -22.5°
Enters shadow 03:27:19 81° 259° (WSW) 581 ? -22.5°
